[ hide orbit diagram ]
For accurate long-term ephemerides, please instead use our Horizons system.This orbit viewer was implemented using two-body methods, and hence should not be used for determining accurate long-term trajectories (over several years or decades) or planetary encounter circumstances.
Orbital Elements at Epoch 2459200.5 (2020-Dec-17.0) TDB
Reference: JPL 19 (heliocentric ecliptic J2000)
Element | Value | Uncertainty (1-sigma) | Units |
e | .1825724989932335 | 4.3763e-08 | |
a | 3.059456963862272 | 2.3355e-08 | au |
q | 2.500884260407686 | 1.3671e-07 | au |
i | 1.045164790321004 | 4.9752e-06 | deg |
node | 162.0803840860029 | 0.00029594 | deg |
peri | 122.7241650784638 | 0.00029634 | deg |
M | 193.3694545648928 | 1.8749e-05 | deg |
tp | 2460105.225986590088 (2023-Jun-09.72598659) | 0.00010701 | TDB |
period | 1954.63175327163 5.35 | 2.2381e-05 6.128e-08 | d yr |
n | .1841779145342533 | 2.1089e-09 | deg/d |
Q | 3.618029667316858 | 2.7618e-08 | au |
|
| | Orbit Determination Parameters
Additional Information
|
[ show covariance matrix ]
Physical Parameter Table
Parameter |
Symbol |
Value |
Units |
Sigma |
Reference |
Notes |
absolute magnitude |
H |
15.5 |
|
n/a |
MPO453205 |
|
|
78407 (2002 QV17) Discovered 2002-Aug-28 by NEAT at Palomar |
Reference: 20040415/Numbers.arc | Last Updated: 2004-04-19 |
|
[ hide close-approach data ]
Close-Approach Data ...sorted by Date/Time (TDB)
|
Date/Time (TDB) |
Time Uncertainty (days_HH:MM) |
Body |
Nominal Distance (au) |
Minimum Distance (au) |
Maximum Distance (au) |
V-relative (km/s) |
V-infinity (km/s) |
JD (TDB) |
Time Uncertainty (minutes) |
Semi-major axis (km) |
Semi-minor axis (km) |
range-LOV angle (deg) |
N-sigma |
BP |
Orbit Ref. |
Reference |
Modified |
1919-Apr-17 13:30 |
00:04 |
Jupiter |
1.62149092812769 |
1.62148937034012 |
1.62149248592014 |
1.21886596933423 |
0.663994689610704 |
2422066.062472874 |
3.630877485603 |
1206.21481301576 |
207.758224417948 |
-19.388444265123 |
1451579.07929684 |
T |
19 |
CATAB v2.0f-lin.ifort 2021-Feb-24 07:15:01 |
2021-Feb-24 07:15 |
1928-Sep-04 01:15 |
00:03 |
Jupiter |
1.84049391622164 |
1.8404919594407 |
1.84049587300499 |
2.69851858104443 |
2.52221588252197 |
2425493.552304899 |
3.2067419893655 |
164.239550177113 |
14.3087866459616 |
-76.5113377784329 |
1627861.45531251 |
T |
19 |
CATAB v2.0f-lin.ifort 2021-Feb-24 07:15:01 |
2021-Feb-24 07:15 |
1977-Jul-09 01:43 |
00:01 |
Jupiter |
1.55011017079551 |
1.55010963288226 |
1.55011070871316 |
1.22143937520227 |
0.631711600872405 |
2443333.571355976 |
1.39825638994831 |
992.029080246754 |
242.958778935829 |
-12.0517963240721 |
1447143.10867038 |
T |
19 |
CATAB v2.0f-lin.ifort 2021-Feb-24 07:15:01 |
2021-Feb-24 07:15 |
2026-Apr-29 09:07 |
< 00:01 |
Jupiter |
1.66829952133128 |
1.6682990835676 |
1.66829995909591 |
1.31854661410544 |
0.850372263486952 |
2461159.879550492 |
0.501341084213741 |
288.59899400993 |
124.876430992706 |
-27.8951990066633 |
2185229.08604333 |
T |
19 |
CATAB v2.0f-lin.ifort 2021-Feb-24 07:15:01 |
2021-Feb-24 07:15 |
2035-Sep-18 20:47 |
< 00:01 |
Jupiter |
1.79175469770492 |
1.79175400605077 |
1.79175538935887 |
2.4231104888653 |
2.21945880552717 |
2464589.365906163 |
0.860078821643899 |
60.5650850008804 |
8.51515200041016 |
-86.4154382407904 |
1814038.33400406 |
T |
19 |
CATAB v2.0f-lin.ifort 2021-Feb-24 07:15:01 |
2021-Feb-24 07:15 |
2084-Jul-20 10:28 |
00:03 |
Jupiter |
1.5471777562508 |
1.54717725374712 |
1.5471782587835 |
1.15536823635285 |
0.489846750874273 |
2482426.936030896 |
2.62179938629149 |
2123.99847785113 |
377.684431016778 |
-16.3015927442961 |
2017584.53874327 |
T |
19 |
CATAB v2.0f-lin.ifort 2021-Feb-24 07:15:01 |
2021-Feb-24 07:15 |
2133-May-13 19:09 |
00:05 |
Jupiter |
1.71791015022357 |
1.7179079264102 |
1.71791237402366 |
1.43696818207963 |
1.03863829333641 |
2500255.298203609 |
4.53090899723651 |
416.798458466277 |
113.29587957893 |
-4.67425394536053 |
517116.985359403 |
T |
19 |
CATAB v2.0f-lin.ifort 2021-Feb-24 07:15:01 |
2021-Feb-24 07:15 |
2142-Oct-05 04:26 |
00:05 |
Jupiter |
1.74332877073131 |
1.74332626554535 |
1.74333127591835 |
2.15926409469173 |
1.92111721033447 |
2503686.684625649 |
4.96481054369388 |
211.988309605255 |
11.8881294398518 |
81.7527378293471 |
1332549.03485843 |
T |
19 |
CATAB v2.0f-lin.ifort 2021-Feb-24 07:15:01 |
2021-Feb-24 07:15 |
2191-Aug-05 04:11 |
00:07 |
Jupiter |
1.5489941346026 |
1.54899367305658 |
1.5489945961738 |
1.1025424381578 |
0.349224620432201 |
2521522.674216584 |
6.56321770282388 |
6502.97858406867 |
738.269492746407 |
-18.4391942290622 |
2696434.09379791 |
T |
19 |
CATAB v2.0f-lin.ifort 2021-Feb-24 07:15:01 |
2021-Feb-24 07:15 |
|
|